Spokane Fairchild, WA
on Saturday, December 22, 2012

Saturday
Previous Day Next Day
Daily Summary
 ActualAverage (KGEG)Record (KGEG)
Temperature
Mean Temperature °F 26°F  
Max Temperature 39°F 31°F 54°F (1933)
Min Temperature 27°F 22°F -15°F (1983)
Degree Days
Heating Degree Days 32 39  
Month to date heating degree days 823  
Since 1 July heating degree days 2490  
Cooling Degree Days 0 0  
Month to date cooling degree days 0  
Year to date cooling degree days 450  
Moisture
Dew Point 34°F   
Average Humidity 100    
Maximum Humidity 100    
Minimum Humidity 100    
Precipitation
Precipitation 0.10 in 0.08 in 1.12 in (1964)
Month to date precipitation 1.70  
Year to date precipitation 15.96  
Snow
Snow 0.00 in 0.60 in 3.80 in (2008)
Month to date snowfall 9.9  
Since 1 July snowfall 17.4  
Snow Depth in   
Wind
Wind Speed 10 mph   
Max Wind Speed 18 mph   
Max Gust Speed 26 mph   
Visibility 10 miles   
Events Rain , Snow   

Key: T is trace of precipitation, MM is missing value
Source: NWS Daily Summary
Time(PST)TemperatureDew PointHumidity Pressure Visibility Wind DirectionWind SpeedGust SpeedPrecipitationEvents Conditions
12:05 AM 32.0°F 32.0°F 100% 29.74 in 10.0 miles ENE 8.1 mph - N/A   Overcast
12:27 AM 33.8°F 33.8°F 100% 29.74 in 10.0 miles ENE 5.8 mph - N/A   Overcast
12:58 AM 34.0°F 34.0°F 100% 29.81 in 10.0 miles East 6.9 mph - 0.00 in   Overcast
1:58 AM 34.9°F 34.9°F 100% 29.80 in 10.0 miles East 8.1 mph - N/A   Partly Cloudy
2:06 AM 35.6°F 35.6°F 100% 29.74 in 10.0 miles East 9.2 mph - N/A   Clear
2:15 AM 35.6°F 35.6°F 100% 29.74 in 10.0 miles East 9.2 mph - N/A   Clear
2:58 AM 33.4°F 33.4°F 100% 29.80 in 10.0 miles ENE 6.9 mph - 0.00 in   Partly Cloudy
3:58 AM 33.4°F 33.4°F 100% 29.80 in 10.0 miles NE 4.6 mph - N/A   Overcast
4:15 AM 32.0°F 32.0°F 100% 29.72 in 10.0 miles NE 9.2 mph - N/A   Overcast
4:25 AM 32.0°F 32.0°F 100% 29.72 in 10.0 miles NE 9.2 mph - N/A   Overcast
4:58 AM 32.5°F 32.5°F 100% 29.78 in 10.0 miles NE 10.4 mph - 0.00 in   Mostly Cloudy
5:58 AM 33.3°F 33.3°F 100% 29.75 in 10.0 miles NE 8.1 mph - N/A   Overcast
6:58 AM 32.0°F 32.0°F 100% 29.74 in 10.0 miles NE 10.4 mph - N/A   Scattered Clouds
7:46 AM 32.0°F 32.0°F 100% 29.66 in 10.0 miles NE 10.4 mph - N/A Rain Light Rain
7:53 AM 32.0°F 32.0°F 100% 29.65 in 10.0 miles NE 11.5 mph - N/A Rain Light Rain
7:58 AM 33.1°F 33.1°F 100% 29.72 in 10.0 miles NE 10.4 mph - 0.00 in Rain Light Rain
8:14 AM 32.0°F 32.0°F 100% 29.64 in 10.0 miles NE 9.2 mph - N/A   Scattered Clouds
8:58 AM 32.7°F 32.7°F 100% 29.69 in 10.0 miles NE 12.7 mph - 0.00 in   Scattered Clouds
9:58 AM 34.0°F 34.0°F 100% 29.68 in 10.0 miles ENE 8.1 mph - N/A   Mostly Cloudy
10:12 AM 33.8°F 33.8°F 100% 29.62 in 10.0 miles NE 8.1 mph - N/A Rain Light Rain
10:27 AM 35.6°F 35.6°F 100% 29.61 in 10.0 miles ENE 10.4 mph - N/A Rain Light Rain
10:32 AM 35.6°F 35.6°F 100% 29.62 in 10.0 miles ENE 10.4 mph - N/A   Light Drizzle
10:35 AM 35.6°F 35.6°F 100% 29.61 in 10.0 miles NE 9.2 mph - N/A   Mostly Cloudy
10:49 AM 35.6°F 35.6°F 100% 29.61 in 10.0 miles ENE 8.1 mph - N/A Rain Light Rain
10:58 AM 35.4°F 35.4°F 100% 29.66 in 10.0 miles East 11.5 mph - 0.00 in Rain Light Rain
11:28 AM 39.2°F 39.2°F 100% 29.59 in 10.0 miles ESE 17.3 mph 26.5 mph N/A Rain Light Rain
11:58 AM 38.5°F 38.5°F 100% 29.63 in 10.0 miles SSE 16.1 mph - 0.00 in Rain Light Rain
12:38 PM 37.4°F 37.4°F 100% 29.58 in 10.0 miles SSE 18.4 mph 25.3 mph N/A Rain Light Rain
12:43 PM 37.4°F 37.4°F 100% 29.58 in 10.0 miles SSE 16.1 mph - N/A Rain Light Rain
12:53 PM 37.4°F 37.4°F 100% 29.57 in 10.0 miles SSE 13.8 mph - N/A Rain Light Rain
12:58 PM 37.4°F 37.4°F 100% 29.62 in 10.0 miles SSE 12.7 mph - 0.01 in Rain Light Rain
1:04 PM 37.4°F 37.4°F 100% 29.58 in 10.0 miles SSE 15.0 mph - N/A Rain Light Rain
1:29 PM 35.6°F 35.6°F 100% 29.57 in 10.0 miles SSE 12.7 mph - N/A Rain Light Rain
1:30 PM 35.6°F 35.6°F 100% 29.57 in 10.0 miles SSE 12.7 mph - N/A Rain Light Rain
1:35 PM 35.6°F 35.6°F 100% 29.57 in 10.0 miles SSE 12.7 mph - N/A Rain Light Rain
1:45 PM 35.6°F 35.6°F 100% 29.57 in 10.0 miles SSE 11.5 mph - N/A Rain Light Rain
1:58 PM 36.1°F 36.1°F 100% 29.62 in 10.0 miles SSE 12.7 mph - 0.02 in Rain Light Rain
2:48 PM 35.6°F 35.6°F 100% 29.59 in 10.0 miles SSW 11.5 mph - N/A Rain Light Rain
2:50 PM 35.6°F 35.6°F 100% 29.60 in 8.0 miles SSW 15.0 mph - N/A   Overcast
2:58 PM 35.8°F 35.8°F 100% 29.66 in 7.0 miles South 15.0 mph - 0.03 in   Overcast
3:03 PM 35.6°F 35.6°F 100% 29.60 in 9.0 miles South 12.7 mph - N/A   Overcast
3:13 PM 35.6°F 35.6°F 100% 29.61 in 9.0 miles SSW 15.0 mph - N/A Rain Rain
3:33 PM 35.6°F 35.6°F 100% 29.61 in 10.0 miles SSW 10.4 mph - N/A Snow Light Snow
3:38 PM 35.6°F 35.6°F 100% 29.61 in 10.0 miles South 11.5 mph - N/A Rain Light Rain
3:55 PM 35.6°F 35.6°F 100% 29.62 in 10.0 miles South 9.2 mph - N/A   Overcast
3:58 PM 35.6°F 35.6°F 100% 29.68 in 10.0 miles South 8.1 mph - 0.03 in   Overcast
4:01 PM 35.6°F 35.6°F 100% 29.62 in 10.0 miles South 10.4 mph - N/A Rain Light Rain
4:06 PM 35.6°F 35.6°F 100% 29.62 in 10.0 miles South 10.4 mph - N/A Rain Light Rain
4:11 PM 35.6°F 35.6°F 100% 29.62 in 10.0 miles South 11.5 mph - N/A Rain Light Rain
4:36 PM 33.8°F 33.8°F 100% 29.64 in 10.0 miles South 9.2 mph - N/A Rain Light Rain
4:41 PM 33.8°F 33.8°F 100% 29.64 in 10.0 miles South 9.2 mph - N/A Rain Light Rain
4:51 PM 33.8°F 33.8°F 100% 29.64 in 10.0 miles South 8.1 mph - N/A Rain Light Rain
4:58 PM 34.5°F 34.5°F 100% 29.71 in 10.0 miles South 5.8 mph - 0.01 in Rain Light Rain
5:03 PM 33.8°F 33.8°F 100% 29.65 in 10.0 miles South 5.8 mph - N/A Rain Light Rain
5:21 PM 35.6°F 35.6°F 100% 29.65 in 10.0 miles South 5.8 mph - N/A   Overcast
5:36 PM 33.8°F 33.8°F 100% 29.65 in 10.0 miles SSE 4.6 mph - N/A   Overcast
5:58 PM 34.5°F 34.5°F 100% 29.72 in 10.0 miles SSE 5.8 mph - 0.00 in   Mostly Cloudy
6:58 PM 33.6°F 33.6°F 100% 29.74 in 10.0 miles South 8.1 mph - N/A   Partly Cloudy
7:58 PM 32.9°F 32.9°F 100% 29.76 in 10.0 miles SSE 9.2 mph - N/A   Clear
8:58 PM 31.8°F 31.8°F 100% 29.79 in 10.0 miles South 9.2 mph - N/A   Clear
9:58 PM 30.7°F 30.7°F 100% 29.81 in 10.0 miles South 8.1 mph - N/A   Clear
10:58 PM 28.4°F 28.4°F 100% 29.83 in 10.0 miles South 10.4 mph - N/A   Clear
11:58 PM 27.7°F 27.7°F 100% 29.83 in 10.0 miles South 9.2 mph - N/A   Clear
Moon Phase
Dec. 22 Dec. 28 Jan. 04 Jan. 11 Jan. 18
Sunrise:07:36 AM (PST) Moon Rise:12:34 PM (PST)
Sunset:04:02 PM (PST) Moon Set:02:13 AM (PST)

Copyright © 2014 The Weather Underground, Inc.